Wind_Speed
29 31 30 29 29 30 31 31 32 32 33 34 34 33 32 33 34 33 33 33 33 33 34 34 35 35 36 35 34 35 34 35 34 34 35 36 37 37 37 37 37 37 38 39
30 30 30 30 30 31 31 32 32 33 34 35 35 35 33 33 33 33 33 33 34 34 35 35 35 36 36 36 35 35 35 34 34 34 34 36 36 37 37 37 37 37 38 38
31 30 30 31 31 32 32 32 32 33 34 35 35 35 33 33 33 32 32 33 33 34 34 34 34 35 36 36 35 35 34 34 34 34 34 35 36 37 37 37 36 37 37 38
31 30 31 32 32 32 32 31 32 33 34 35 35 36 32 31 31 30 30 31 31 32 33 33 33 33 34 35 35 35 34 35 35 34 34 35 36 37 37 37 37 38 37 38
30 30 31 31 31 32 32 31 32 32 34 35 34 35 32 31 30 29 28 29 30 30 30 31 31 32 33 33 34 34 34 35 35 35 35 36 37 37 38 37 37 37 37 38
29 30 30 30 30 31 30 30 31 32 33 34 32 34 31 29 28 28 27 28 29 29 29 29 30 31 32 32 33 33 34 34 35 36 36 36 36 37 37 38 37 37 38 38
28 28 29 29 30 30 29 28 30 31 32 33 31 33 31 28 27 27 27 27 28 29 29 29 29 30 31 31 32 32 33 34 34 34 35 35 35 36 37 37 37 38 38 39
28 28 28 29 29 29 28 28 29 31 32 32 31 32 29 27 26 26 27 27 28 28 28 29 30 30 30 31 32 31 32 32 33 33 34 34 35 36 36 37 38 38 39 40
27 27 26 26 27 28 28 28 28 30 32 32 31 30 29 27 26 26 26 27 28 28 28 29 30 30 31 31 31 31 32 32 32 33 34 35 35 36 36 37 38 38 39 40
26 27 27 27 27 27 28 27 27 29 30 32 31 29 28 26 25 25 26 27 27 28 28 29 29 30 31 31 31 31 31 32 33 34 34 35 36 36 37 38 38 38 39 39
27 27 27 27 27 27 27 27 28 29 30 31 31 28 27 26 25 25 26 26 27 27 28 29 29 29 30 31 31 31 32 32 33 33 34 35 35 36 36 37 37 38 38 39
28 28 27 27 27 26 26 26 28 29 29 30 30 28 25 24 25 25 26 26 27 27 28 28 29 29 30 30 31 32 32 32 33 33 34 35 36 36 36 37 37 37 37 38
29 29 29 29 28 27 26 26 28 29 29 30 29 27 26 25 25 26 26 27 27 28 29 29 29 30 30 30 30 31 32 33 33 34 34 34 35 35 35 36 36 36 36 36
29 29 29 30 29 29 27 26 28 29 29 30 28 27 25 26 27 27 27 27 28 28 29 30 30 30 30 31 30 31 32 33 33 34 33 34 34 34 35 35 35 35 35 36
29 29 28 28 29 30 30 29 28 28 28 29 28 28 27 27 28 28 28 28 28 28 29 30 30 30 30 31 31 31 31 32 33 33 33 33 33 34 34 34 35 35 35 36
28 28 27 26 27 29 30 30 30 29 28 28 28 28 27 28 29 29 28 29 29 29 30 30 30 30 31 31 31 31 31 31 32 32 33 33 34 34 34 35 35 35 35 35
26 27 27 27 27 29 30 28 28 28 28 29 28 27 28 28 28 28 29 30 30 29 30 30 30 31 31 31 31 31 32 32 32 32 33 34 34 34 35 35 36 35 35 35
24 25 26 27 28 29 26 26 27 27 27 27 28 28 29 28 29 29 30 30 30 30 29 30 31 31 31 31 31 32 32 32 32 32 33 33 34 34 35 35 35 35 35 35
23 23 24 25 26 26 24 24 25 26 26 26 26 27 28 29 29 28 29 30 30 30 30 29 30 31 31 31 32 32 32 32 32 32 33 33 34 34 34 34 34 34 35 35
24 24 24 25 26 25 23 23 23 26 26 25 26 26 27 29 30 28 29 30 31 31 31 30 30 31 31 32 32 32 32 31 31 32 32 32 33 33 33 34 34 35 35 35
24 24 24 25 25 25 23 23 23 24 24 24 25 25 26 28 29 29 30 30 30 31 31 31 30 31 31 32 33 33 32 32 32 32 32 32 32 32 33 33 34 34 34 35
23 25 25 25 26 23 22 23 23 23 23 23 24 25 26 26 27 28 29 29 29 29 30 31 31 31 32 33 33 34 33 33 33 32 32 32 32 32 32 32 33 34 34 34
23 24 25 26 26 24 23 23 23 23 22 22 23 24 25 25 26 26 27 28 28 28 29 30 31 32 33 33 33 34 34 34 33 33 33 32 33 33 33 33 33 33 34 34
24 23 24 24 24 23 23 23 22 22 23 23 24 24 24 25 25 25 26 26 27 27 27 29 30 31 32 32 33 33 33 34 34 33 33 33 33 33 32 32 33 33 33 34
24 23 24 24 23 23 23 23 22 22 24 24 24 24 25 25 25 25 25 24 25 26 27 27 28 29 30 30 30 30 31 32 32 32 33 33 32 32 31 31 32 31 31 31
23 23 23 23 23 23 22 23 23 23 24 23 23 23 24 24 24 24 24 24 25 25 25 25 25 25 26 27 28 29 28 29 29 30 30 30 31 31 31 30 30 29 30 30
Wind_Direction
258 257 257 257 255 256 257 257 257 254 253 254 254 253 254 255 254 254 254 256 256 256 255 254 254 253 252 253 253 253 254 254 254 253 254 254 255 256 256 257 260 261 263 264
258 257 256 255 255 255 257 257 258 256 254 255 256 255 254 255 255 256 256 256 256 255 255 255 253 252 252 252 253 252 253 253 253 254 254 254 255 255 256 258 260 261 262 264
261 259 256 254 254 254 255 257 257 258 256 255 257 255 255 255 256 257 256 256 256 256 255 255 254 252 252 252 252 252 252 253 253 253 255 256 256 256 257 259 260 262 263 264
262 258 256 254 254 254 256 257 257 257 256 255 256 257 253 255 256 257 256 256 256 256 255 254 254 253 252 252 251 252 253 253 252 253 256 258 257 257 258 259 261 263 264 265
261 258 256 254 253 253 256 256 257 257 257 257 256 258 254 254 255 256 256 256 255 255 254 253 253 253 253 252 252 252 253 253 254 254 256 258 258 257 257 259 260 262 264 266
260 259 257 255 251 251 254 256 257 257 257 257 255 257 256 254 255 256 257 256 254 253 252 251 251 251 252 253 252 251 252 254 256 257 258 258 257 257 258 259 260 262 263 265
261 259 258 255 253 251 253 255 256 256 255 257 256 256 256 255 255 256 256 256 254 253 252 251 251 252 252 253 253 252 254 254 255 257 258 258 258 258 258 260 261 263 264 266
264 260 257 255 254 254 255 255 256 258 258 258 258 257 256 256 257 257 256 255 254 252 251 251 251 251 252 253 253 253 254 255 255 256 258 259 259 258 259 260 262 264 266 267
265 261 257 255 254 255 254 256 258 260 259 260 259 258 256 255 256 258 257 256 254 253 253 253 252 250 252 253 254 255 255 255 255 256 258 259 260 261 261 261 263 265 266 267
263 261 256 255 254 253 254 257 258 259 259 260 259 257 257 255 258 260 259 256 255 254 254 255 254 253 254 255 255 255 255 255 256 257 258 260 261 262 263 263 264 265 266 268
262 261 258 255 252 252 253 254 254 257 258 258 258 258 258 259 260 261 259 258 257 257 256 257 257 256 255 255 255 255 256 257 257 259 260 261 262 263 263 263 264 265 267 269
258 259 259 256 253 252 254 254 253 254 256 257 258 257 258 259 259 260 260 259 258 259 259 259 258 257 256 256 255 256 257 258 258 260 261 263 264 264 265 265 265 266 268 269
256 258 258 254 250 251 251 253 253 253 254 255 257 259 257 256 257 259 260 260 259 259 259 258 257 257 257 257 258 257 258 259 260 261 262 263 264 264 264 265 266 266 267 269
255 257 258 257 255 253 250 252 253 253 254 255 256 258 258 258 257 259 260 260 260 260 259 258 257 258 258 259 260 260 260 259 260 261 262 263 264 264 264 264 265 267 268 269
255 257 257 255 256 255 252 252 252 253 255 256 255 255 256 256 258 259 261 261 261 261 260 260 260 259 258 259 260 260 261 261 260 260 261 262 264 264 264 264 266 268 270 271
255 256 256 254 254 254 253 254 256 256 254 254 254 253 254 256 259 261 263 263 262 262 262 261 260 259 258 259 260 260 261 261 262 261 262 263 264 264 264 264 266 268 271 272
255 257 258 256 255 254 253 253 256 256 256 256 256 255 256 257 258 260 262 263 263 263 262 261 260 260 259 259 259 260 260 261 262 263 264 264 265 265 264 265 266 268 270 272
253 256 257 258 256 255 255 254 254 255 256 258 258 258 259 259 258 259 261 263 265 265 263 262 261 260 259 259 259 260 260 261 262 263 265 266 266 266 266 266 267 269 271 273
252 255 258 258 259 257 254 255 256 256 256 258 259 258 258 259 260 260 262 264 267 267 265 264 263 261 260 260 260 261 262 262 263 264 265 267 268 268 267 267 268 270 272 274
256 256 257 257 259 259 259 259 258 259 259 258 260 261 261 261 261 261 263 266 269 270 267 265 264 262 262 261 261 263 264 264 264 265 266 268 269 270 269 268 269 271 273 275
256 255 254 256 259 259 260 260 260 260 262 263 264 264 264 264 264 264 265 267 269 270 268 266 264 263 263 263 263 264 264 264 264 265 266 269 270 270 270 270 271 272 274 275
259 259 257 256 257 258 258 260 261 260 260 263 264 265 265 265 265 266 267 269 270 269 268 265 265 263 262 262 263 263 264 264 265 266 267 269 270 271 272 272 273 273 274 275
258 258 258 257 258 257 258 260 262 261 261 263 265 266 266 267 267 268 268 268 268 270 270 268 266 266 263 262 262 262 263 264 264 265 266 268 269 271 272 273 273 273 274 275
257 256 257 259 256 255 256 258 260 261 262 264 266 267 268 269 268 267 267 268 268 270 272 269 268 268 265 263 262 262 263 264 265 266 266 267 268 270 271 272 274 275 274 273
255 256 258 259 255 252 254 257 260 261 262 265 268 270 269 269 268 268 267 268 269 271 272 271 269 267 266 264 262 264 264 264 264 265 267 267 268 270 271 272 274 274 273 272
252 255 256 255 252 252 253 254 257 260 263 267 269 270 269 269 268 267 268 270 271 271 271 269 269 269 267 265 264 265 267 265 264 266 267 267 267 269 270 271 272 273 272 273
Height
5679 5680 5682 5683 5684 5685 5685 5686 5688 5691 5691 5691 5693 5695 5698 5698 5699 5701 5703 5704 5705 5707 5708 5708 5709 5711 5712 5714 5716 5717 5718 5720 5721 5723 5724 5725 5727 5729 5730 5732 5733 5734 5734 5735
5670 5672 5675 5674 5675 5675 5676 5677 5679 5682 5682 5682 5683 5685 5688 5689 5691 5692 5694 5695 5696 5697 5698 5699 5700 5701 5703 5705 5707 5708 5709 5711 5713 5714 5715 5717 5718 5720 5722 5723 5724 5725 5725 5725
5661 5665 5665 5665 5666 5667 5668 5669 5671 5672 5673 5673 5674 5676 5679 5681 5681 5683 5684 5685 5686 5688 5689 5690 5691 5693 5695 5697 5698 5700 5701 5702 5704 5705 5707 5708 5709 5711 5713 5714 5715 5716 5716 5716
5652 5655 5654 5655 5657 5658 5659 5661 5662 5662 5663 5663 5665 5665 5671 5672 5672 5674 5675 5676 5678 5679 5680 5682 5683 5684 5686 5688 5690 5691 5693 5694 5695 5697 5698 5700 5701 5702 5704 5705 5706 5707 5707 5707
5643 5645 5645 5646 5649 5649 5651 5652 5653 5653 5653 5654 5656 5655 5661 5663 5664 5666 5667 5668 5669 5671 5672 5674 5675 5676 5678 5679 5681 5682 5684 5686 5687 5688 5690 5691 5692 5693 5694 5696 5697 5697 5698 5698
5635 5635 5636 5638 5639 5640 5641 5643 5643 5643 5644 5645 5648 5648 5651 5655 5657 5658 5659 5660 5661 5662 5664 5665 5667 5668 5669 5671 5672 5674 5675 5677 5679 5680 5681 5682 5683 5684 5685 5686 5687 5688 5688 5688
5626 5627 5627 5629 5630 5632 5633 5634 5634 5634 5634 5636 5640 5639 5643 5647 5649 5650 5651 5652 5653 5654 5656 5657 5659 5660 5661 5663 5664 5665 5667 5668 5670 5671 5672 5672 5673 5675 5676 5677 5678 5678 5679 5679
5616 5619 5620 5620 5622 5623 5624 5626 5627 5627 5627 5629 5630 5631 5637 5639 5640 5641 5642 5643 5644 5646 5647 5649 5651 5652 5653 5654 5656 5657 5658 5659 5661 5662 5663 5663 5664 5665 5666 5667 5668 5668 5669 5669
5608 5610 5612 5613 5614 5615 5616 5617 5619 5619 5619 5620 5622 5625 5629 5631 5632 5633 5634 5635 5636 5638 5639 5641 5642 5643 5645 5646 5647 5649 5649 5651 5652 5652 5653 5654 5655 5656 5656 5657 5658 5658 5658 5658
5600 5601 5604 5605 5606 5607 5609 5610 5610 5610 5611 5612 5614 5617 5621 5623 5625 5626 5626 5627 5628 5630 5631 5632 5633 5635 5636 5637 5639 5639 5640 5641 5642 5643 5644 5645 5645 5646 5646 5647 5648 5648 5648 5648
5592 5593 5595 5597 5598 5600 5601 5602 5602 5603 5604 5605 5607 5613 5614 5616 5617 5618 5619 5619 5620 5621 5622 5624 5625 5626 5627 5628 5630 5631 5632 5632 5633 5634 5634 5635 5635 5636 5636 5637 5637 5637 5637 5637
5584 5585 5586 5589 5590 5591 5592 5594 5595 5596 5597 5598 5599 5606 5607 5608 5609 5610 5611 5611 5612 5613 5614 5615 5616 5617 5618 5619 5620 5621 5622 5623 5624 5624 5625 5625 5625 5626 5626 5626 5626 5627 5627 5626
5576 5578 5578 5580 5584 5584 5584 5585 5586 5587 5588 5589 5591 5598 5599 5599 5600 5601 5602 5603 5604 5605 5606 5607 5607 5608 5609 5610 5611 5612 5613 5613 5614 5614 5615 5615 5615 5616 5616 5616 5616 5616 5616 5616
5568 5570 5572 5573 5574 5574 5576 5578 5579 5579 5580 5582 5585 5588 5591 5591 5591 5592 5593 5594 5595 5596 5597 5598 5598 5599 5600 5601 5602 5602 5603 5603 5604 5604 5605 5605 5606 5606 5606 5606 5606 5606 5606 5605
5560 5561 5563 5564 5565 5566 5568 5569 5570 5571 5573 5574 5577 5579 5582 5582 5583 5584 5585 5586 5587 5587 5588 5589 5589 5590 5591 5592 5592 5593 5593 5594 5594 5595 5595 5595 5596 5596 5596 5596 5596 5596 5595 5595
5552 5553 5555 5556 5557 5557 5559 5561 5563 5564 5565 5566 5568 5571 5573 5573 5574 5575 5576 5577 5578 5579 5579 5580 5580 5581 5582 5582 5583 5584 5584 5584 5585 5585 5586 5586 5586 5586 5586 5586 5586 5586 5585 5585
5545 5546 5547 5548 5549 5549 5551 5555 5556 5557 5558 5559 5560 5564 5564 5565 5566 5567 5567 5567 5568 5569 5570 5570 5571 5572 5572 5573 5574 5574 5575 5575 5575 5576 5576 5576 5576 5576 5576 5576 5576 5576 5575 5575
5538 5538 5539 5540 5542 5542 5548 5548 5548 5549 5550 5552 5553 5554 5555 5556 5557 5558 5558 5558 5559 5560 5560 5561 5562 5562 5563 5564 5564 5565 5565 5566 5566 5566 5566 5566 5566 5566 5566 5566 5566 5566 5565 5565
5531 5531 5532 5532 5533 5535 5540 5541 5540 5541 5543 5544 5544 5545 5546 5547 5548 5549 5549 5550 5550 5551 5551 5551 5552 5552 5553 5553 5554 5555 5555 5556 5556 5556 5556 5556 5556 5556 5556 5556 5556 5556 5555 5554
5524 5525 5526 5526 5526 5528 5533 5533 5532 5533 5535 5537 5536 5537 5538 5538 5539 5542 5541 5541 5541 5541 5541 5541 5542 5542 5543 5544 5544 5545 5546 5547 5547 5547 5547 5547 5546 5546 5546 5546 5546 5546 5545 5544
5517 5518 5518 5519 5518 5520 5525 5525 5525 5527 5529 5528 5528 5528 5529 5529 5531 5532 5531 5531 5531 5531 5531 5531 5532 5533 5534 5534 5535 5536 5537 5537 5537 5537 5537 5537 5537 5537 5536 5536 5536 5535 5535 5534
5510 5511 5511 5512 5512 5516 5517 5517 5518 5519 5519 5519 5519 5520 5520 5521 5521 5521 5521 5521 5521 5521 5521 5522 5522 5523 5523 5524 5525 5526 5527 5527 5527 5528 5528 5528 5528 5527 5527 5526 5526 5525 5524 5524
5502 5504 5504 5505 5508 5509 5509 5509 5510 5511 5511 5511 5512 5512 5512 5512 5513 5513 5512 5512 5512 5512 5512 5512 5512 5513 5513 5514 5515 5516 5517 5517 5517 5518 5518 5518 5518 5518 5517 5517 5516 5515 5514 5513
5495 5496 5496 5497 5499 5501 5501 5502 5502 5503 5503 5504 5504 5504 5504 5504 5504 5504 5504 5503 5503 5503 5503 5503 5503 5503 5503 5504 5504 5505 5506 5507 5508 5508 5508 5508 5508 5508 5507 5507 5506 5505 5504 5503
5488 5488 5489 5490 5492 5493 5494 5495 5495 5496 5496 5496 5496 5496 5496 5496 5496 5496 5495 5495 5495 5495 5494 5494 5493 5493 5494 5494 5495 5495 5496 5497 5497 5498 5498 5498 5498 5498 5498 5497 5496 5495 5494 5493
5481 5482 5482 5484 5485 5486 5487 5488 5488 5488 5489 5489 5489 5489 5488 5488 5488 5487 5487 5487 5486 5486 5486 5485 5485 5484 5484 5485 5485 5486 5486 5487 5487 5488 5488 5488 5488 5488 5488 5488 5487 5486 5485 5484